Wetterdaten: Samstag, 22.02.2014
Datum Zeit Temperatur Luftfeuchte Luftdruck Regen Wind Richtung Richtung Taupunkt Windchill Windben
22.02.2014 00:00 1,1 C 93 % 1014,3 hPa 0,0 l/m 3,2 km/h (1 Bft) O 90 0,1 C 1,1 C 3,1 km/h (1 Bft)
22.02.2014 00:05 1,0 C 93 % 1014,3 hPa 0,0 l/m 2,4 km/h (1 Bft) SO 135 -0,0 C 1,5 C 3,1 km/h (1 Bft)
22.02.2014 00:10 1,1 C 93 % 1014,5 hPa 0,0 l/m 2,9 km/h (1 Bft) O-SO 112 0,1 C 1,2 C 4,3 km/h (1 Bft)
22.02.2014 00:15 1,1 C 93 % 1014,5 hPa 0,0 l/m 3,1 km/h (1 Bft) O-SO 112 0,1 C 1,1 C 2,9 km/h (1 Bft)
22.02.2014 00:20 1,1 C 93 % 1014,5 hPa 0,0 l/m 2,3 km/h (1 Bft) NO 45 0,1 C 1,5 C 3,1 km/h (1 Bft)
22.02.2014 00:25 1,1 C 93 % 1014,5 hPa 0,0 l/m 2,3 km/h (1 Bft) O-NO 67 0,1 C 1,5 C 0,0 km/h (0 Bft)
22.02.2014 00:30 1,1 C 93 % 1014,5 hPa 0,0 l/m 3,2 km/h (1 Bft) O-SO 112 0,1 C 1,1 C 6,8 km/h (2 Bft)
22.02.2014 00:35 1,3 C 93 % 1014,5 hPa 0,0 l/m 4,2 km/h (1 Bft) O-NO 67 0,3 C 0,5 C 4,8 km/h (1 Bft)
22.02.2014 00:38 1,2 C 93 % 1014,5 hPa 0,0 l/m 4,8 km/h (1 Bft) NO 45 0,2 C 0,4 C 7,6 km/h (2 Bft)
22.02.2014 00:40 1,2 C 93 % 1014,5 hPa 0,0 l/m 4,8 km/h (1 Bft) NO 45 0,2 C 0,4 C 0,0 km/h (0 Bft)
22.02.2014 00:45 1,1 C 93 % 1014,5 hPa 0,0 l/m 2,9 km/h (1 Bft) S 180 0,1 C 1,4 C 2,3 km/h (1 Bft)
22.02.2014 00:50 1,1 C 93 % 1014,9 hPa 0,0 l/m 2,4 km/h (1 Bft) S-SO 157 0,1 C 1,5 C 4,0 km/h (1 Bft)
22.02.2014 00:55 1,1 C 93 % 1014,9 hPa 0,0 l/m 3,2 km/h (1 Bft) O-SO 112 0,1 C 1,1 C 3,9 km/h (1 Bft)
22.02.2014 01:00 1,1 C 93 % 1014,9 hPa 0,0 l/m 3,7 km/h (1 Bft) O-SO 112 0,1 C 0,8 C 2,4 km/h (1 Bft)
22.02.2014 01:05 1,0 C 93 % 1014,9 hPa 0,0 l/m 3,7 km/h (1 Bft) O-NO 67 -0,0 C 0,8 C 4,7 km/h (1 Bft)
22.02.2014 01:10 1,1 C 93 % 1014,4 hPa 0,0 l/m 4,0 km/h (1 Bft) SO 135 0,1 C 0,6 C 8,5 km/h (2 Bft)
22.02.2014 01:15 1,1 C 93 % 1014,4 hPa 0,0 l/m 5,1 km/h (1 Bft) O-SO 112 0,1 C 0,1 C 6,4 km/h (2 Bft)
22.02.2014 01:20 1,1 C 93 % 1014,4 hPa 0,0 l/m 5,5 km/h (1 Bft) S-SW 202 0,1 C -0,1 C 5,3 km/h (1 Bft)
22.02.2014 01:25 1,1 C 93 % 1014,4 hPa 0,0 l/m 5,8 km/h (2 Bft) O 90 0,1 C -0,3 C 6,4 km/h (2 Bft)
22.02.2014 01:30 1,0 C 93 % 1014,8 hPa 0,0 l/m 5,8 km/h (2 Bft) O 90 -0,0 C -0,6 C 10,3 km/h (2 Bft)
22.02.2014 01:35 1,0 C 92 % 1014,8 hPa 0,0 l/m 6,0 km/h (2 Bft) SO 135 -0,2 C -0,7 C 9,0 km/h (2 Bft)
22.02.2014 01:40 1,0 C 92 % 1014,8 hPa 0,0 l/m 5,8 km/h (2 Bft) SO 135 -0,2 C -0,7 C 5,0 km/h (1 Bft)
22.02.2014 01:45 0,8 C 93 % 1014,8 hPa 0,0 l/m 4,3 km/h (1 Bft) O-SO 112 -0,2 C -0,2 C 4,3 km/h (1 Bft)
22.02.2014 01:50 0,8 C 93 % 1014,8 hPa 0,0 l/m 3,9 km/h (1 Bft) O-SO 112 -0,2 C 0,0 C 6,1 km/h (2 Bft)
22.02.2014 01:55 0,8 C 93 % 1014,8 hPa 0,0 l/m 4,0 km/h (1 Bft) O-NO 67 -0,2 C -0,1 C 3,1 km/h (1 Bft)
22.02.2014 02:00 0,7 C 93 % 1014,8 hPa 0,0 l/m 3,5 km/h (1 Bft) O-SO 112 -0,3 C 0,1 C 1,6 km/h (1 Bft)
22.02.2014 02:05 0,6 C 93 % 1014,8 hPa 0,0 l/m 1,9 km/h (1 Bft) NO 45 -0,4 C 0,7 C 1,8 km/h (1 Bft)
22.02.2014 02:10 0,6 C 94 % 1014,8 hPa 0,0 l/m 1,6 km/h (1 Bft) SO 135 -0,3 C 0,6 C 4,3 km/h (1 Bft)
22.02.2014 02:15 0,5 C 94 % 1014,8 hPa 0,0 l/m 2,1 km/h (1 Bft) N-NO 22 -0,4 C 0,6 C 2,1 km/h (1 Bft)
22.02.2014 02:20 0,5 C 94 % 1014,8 hPa 0,0 l/m 1,1 km/h (1 Bft) O-NO 67 -0,4 C 0,5 C 0,0 km/h (0 Bft)
22.02.2014 02:25 0,3 C 94 % 1014,8 hPa 0,0 l/m 0,5 km/h (0 Bft) O 90 -0,5 C 0,4 C 0,0 km/h (0 Bft)
22.02.2014 02:30 0,3 C 94 % 1014,8 hPa 0,0 l/m 0,3 km/h (0 Bft) O-NO 67 -0,5 C 0,2 C 0,0 km/h (0 Bft)
22.02.2014 02:35 0,3 C 95 % 1014,8 hPa 0,0 l/m 0,5 km/h (0 Bft) NO 45 -0,4 C 0,2 C 0,0 km/h (0 Bft)
22.02.2014 02:40 0,2 C 95 % 1014,8 hPa 0,0 l/m 0,3 km/h (0 Bft) NO 45 -0,5 C 0,1 C 0,0 km/h (0 Bft)
22.02.2014 02:45 0,3 C 95 % 1014,8 hPa 0,0 l/m 0,3 km/h (0 Bft) NO 45 -0,4 C 0,2 C 2,3 km/h (1 Bft)
22.02.2014 02:50 0,3 C 95 % 1014,7 hPa 0,0 l/m 0,2 km/h (0 Bft) N-NW 337 -0,4 C 0,3 C 0,0 km/h (0 Bft)
22.02.2014 02:55 0,3 C 95 % 1014,7 hPa 0,0 l/m 0,6 km/h (0 Bft) N-NO 22 -0,4 C 0,3 C 0,0 km/h (0 Bft)
22.02.2014 03:00 0,2 C 95 % 1014,7 hPa 0,0 l/m 0,6 km/h (0 Bft) W-SW 247 -0,5 C 0,3 C 0,0 km/h (0 Bft)
22.02.2014 03:05 0,2 C 95 % 1014,7 hPa 0,0 l/m 0,3 km/h (0 Bft) NO 45 -0,5 C 0,1 C 0,0 km/h (0 Bft)
22.02.2014 03:10 0,1 C 95 % 1014,6 hPa 0,0 l/m 0,3 km/h (0 Bft) NO 45 -0,6 C 0,0 C 0,0 km/h (0 Bft)
22.02.2014 03:15 0,1 C 95 % 1014,6 hPa 0,0 l/m 0,8 km/h (0 Bft) NO 45 -0,6 C 0,0 C 3,1 km/h (1 Bft)
22.02.2014 03:20 0,0 C 95 % 1014,6 hPa 0,0 l/m 1,3 km/h (1 Bft) NO 45 -0,7 C 0,0 C 0,0 km/h (0 Bft)
22.02.2014 03:25 0,0 C 95 % 1014,6 hPa 0,0 l/m 1,4 km/h (1 Bft) NO 45 -0,7 C -0,1 C 3,5 km/h (1 Bft)
22.02.2014 03:30 -0,1 C 95 % 1014,4 hPa 0,0 l/m 1,0 km/h (0 Bft) NO 45 -0,8 C -0,2 C 4,5 km/h (1 Bft)
22.02.2014 03:35 0,0 C 96 % 1014,4 hPa 0,0 l/m 1,0 km/h (0 Bft) NO 45 -0,6 C -0,2 C 0,0 km/h (0 Bft)
22.02.2014 03:40 -0,2 C 95 % 1014,4 hPa 0,0 l/m 0,6 km/h (0 Bft) NO 45 -0,9 C -0,4 C 2,7 km/h (1 Bft)
22.02.2014 03:45 0,0 C 96 % 1014,4 hPa 0,0 l/m 0,5 km/h (0 Bft) NO 45 -0,6 C -0,4 C 0,0 km/h (0 Bft)
22.02.2014 03:50 0,0 C 96 % 1014,4 hPa 0,0 l/m 1,0 km/h (0 Bft) NO 45 -0,6 C -0,4 C 0,0 km/h (0 Bft)
22.02.2014 03:55 -0,1 C 96 % 1014,4 hPa 0,0 l/m 0,6 km/h (0 Bft) NO 45 -0,7 C -0,4 C 0,0 km/h (0 Bft)
22.02.2014 04:00 -0,2 C 96 % 1014,4 hPa 0,0 l/m 0,6 km/h (0 Bft) NO 45 -0,8 C -0,4 C 7,6 km/h (2 Bft)
22.02.2014 04:05 0,0 C 96 % 1014,4 hPa 0,0 l/m 2,4 km/h (1 Bft) NO 45 -0,6 C -0,3 C 4,5 km/h (1 Bft)
22.02.2014 04:10 0,0 C 96 % 1014,4 hPa 0,0 l/m 3,4 km/h (1 Bft) NO 45 -0,6 C -0,9 C 1,8 km/h (1 Bft)
22.02.2014 04:15 0,0 C 96 % 1014,4 hPa 0,0 l/m 2,1 km/h (1 Bft) NO 45 -0,6 C -0,2 C 5,6 km/h (1 Bft)
22.02.2014 04:20 0,0 C 96 % 1014,4 hPa 0,0 l/m 1,9 km/h (1 Bft) NO 45 -0,6 C -0,2 C 1,6 km/h (1 Bft)
22.02.2014 04:25 -0,1 C 96 % 1014,4 hPa 0,0 l/m 2,3 km/h (1 Bft) NO 45 -0,7 C -0,2 C 0,0 km/h (0 Bft)
22.02.2014 04:30 -0,2 C 96 % 1014,6 hPa 0,0 l/m 1,3 km/h (1 Bft) NO 45 -0,8 C -0,3 C 5,0 km/h (1 Bft)
22.02.2014 04:35 -0,3 C 96 % 1014,6 hPa 0,0 l/m 1,1 km/h (1 Bft) NO 45 -0,9 C -0,3 C 0,0 km/h (0 Bft)
22.02.2014 04:40 0,0 C 96 % 1014,6 hPa 0,0 l/m 2,1 km/h (1 Bft) NO 45 -0,6 C -0,4 C 5,3 km/h (1 Bft)
22.02.2014 04:45 0,0 C 96 % 1014,6 hPa 0,0 l/m 1,8 km/h (1 Bft) NO 45 -0,6 C -0,3 C 0,0 km/h (0 Bft)
22.02.2014 04:50 0,0 C 96 % 1014,6 hPa 0,0 l/m 1,3 km/h (1 Bft) NO 45 -0,6 C -0,2 C 0,0 km/h (0 Bft)
22.02.2014 04:55 0,1 C 96 % 1014,6 hPa 0,0 l/m 1,1 km/h (1 Bft) NO 45 -0,5 C 0,0 C 4,0 km/h (1 Bft)
22.02.2014 05:00 0,2 C 96 % 1014,6 hPa 0,0 l/m 0,6 km/h (0 Bft) NO 45 -0,4 C 0,1 C 0,0 km/h (0 Bft)
22.02.2014 05:05 0,3 C 96 % 1014,6 hPa 0,0 l/m 0,8 km/h (0 Bft) NO 45 -0,3 C 0,1 C 2,7 km/h (1 Bft)
22.02.2014 05:10 0,3 C 96 % 1014,9 hPa 0,0 l/m 1,6 km/h (1 Bft) NO 45 -0,3 C 0,3 C 3,5 km/h (1 Bft)
22.02.2014 05:15 0,3 C 96 % 1014,9 hPa 0,0 l/m 1,4 km/h (1 Bft) NO 45 -0,3 C 0,3 C 2,4 km/h (1 Bft)
22.02.2014 05:20 0,4 C 96 % 1014,9 hPa 0,0 l/m 1,3 km/h (1 Bft) NO 45 -0,2 C 0,4 C 2,3 km/h (1 Bft)
22.02.2014 05:25 0,3 C 96 % 1014,9 hPa 0,0 l/m 1,1 km/h (1 Bft) NO 45 -0,3 C 0,4 C 0,0 km/h (0 Bft)
22.02.2014 05:30 0,3 C 96 % 1015,1 hPa 0,0 l/m 1,0 km/h (0 Bft) NO 45 -0,3 C 0,4 C 0,0 km/h (0 Bft)
22.02.2014 05:35 0,4 C 96 % 1015,1 hPa 0,0 l/m 0,8 km/h (0 Bft) NO 45 -0,2 C 0,4 C 0,0 km/h (0 Bft)
22.02.2014 05:38 0,5 C 96 % 1015,1 hPa 0,0 l/m 1,1 km/h (1 Bft) NO 45 -0,1 C 0,4 C 3,4 km/h (1 Bft)
22.02.2014 05:40 0,5 C 96 % 1015,1 hPa 0,0 l/m 1,1 km/h (1 Bft) NO 45 -0,1 C 0,4 C 3,4 km/h (1 Bft)
22.02.2014 05:45 0,4 C 96 % 1015,1 hPa 0,0 l/m 1,4 km/h (1 Bft) NO 45 -0,2 C 0,4 C 2,6 km/h (1 Bft)
22.02.2014 05:50 0,3 C 96 % 1015,1 hPa 0,0 l/m 2,3 km/h (1 Bft) NO 45 -0,3 C 0,4 C 4,0 km/h (1 Bft)
22.02.2014 05:55 0,4 C 96 % 1015,1 hPa 0,0 l/m 3,4 km/h (1 Bft) NO 45 -0,2 C -0,3 C 2,9 km/h (1 Bft)
22.02.2014 06:00 0,4 C 96 % 1015,1 hPa 0,0 l/m 3,4 km/h (1 Bft) NO 45 -0,2 C -0,4 C 4,3 km/h (1 Bft)
22.02.2014 06:05 0,4 C 96 % 1015,1 hPa 0,0 l/m 3,1 km/h (1 Bft) NO 45 -0,2 C -0,2 C 4,2 km/h (1 Bft)
22.02.2014 06:10 0,4 C 96 % 1015,1 hPa 0,0 l/m 4,0 km/h (1 Bft) NO 45 -0,2 C -0,8 C 7,2 km/h (2 Bft)
22.02.2014 06:15 0,5 C 96 % 1015,1 hPa 0,0 l/m 5,0 km/h (1 Bft) NO 45 -0,1 C -1,2 C 8,0 km/h (2 Bft)
22.02.2014 06:20 0,6 C 96 % 1015,1 hPa 0,0 l/m 5,8 km/h (2 Bft) NO 45 0,0 C -1,4 C 7,6 km/h (2 Bft)
22.02.2014 06:25 0,6 C 96 % 1015,1 hPa 0,0 l/m 5,6 km/h (1 Bft) NO 45 0,0 C -1,2 C 2,9 km/h (1 Bft)
22.02.2014 06:30 0,5 C 96 % 1015,1 hPa 0,0 l/m 5,0 km/h (1 Bft) NO 45 -0,1 C -1,0 C 7,1 km/h (2 Bft)
22.02.2014 06:35 0,5 C 96 % 1015,1 hPa 0,0 l/m 4,8 km/h (1 Bft) NO 45 -0,1 C -0,9 C 7,1 km/h (2 Bft)
22.02.2014 06:40 0,4 C 96 % 1015,1 hPa 0,0 l/m 5,6 km/h (1 Bft) NO 45 -0,2 C -1,3 C 6,9 km/h (2 Bft)
22.02.2014 06:45 0,2 C 96 % 1015,1 hPa 0,0 l/m 4,3 km/h (1 Bft) NO 45 -0,4 C -0,8 C 2,7 km/h (1 Bft)
22.02.2014 06:50 0,0 C 95 % 1015,2 hPa 0,0 l/m 2,3 km/h (1 Bft) NO 45 -0,7 C 0,1 C 1,9 km/h (1 Bft)
22.02.2014 06:55 -0,1 C 95 % 1015,2 hPa 0,0 l/m 2,4 km/h (1 Bft) NO 45 -0,8 C 0,0 C 4,8 km/h (1 Bft)
22.02.2014 07:00 0,1 C 95 % 1015,2 hPa 0,0 l/m 3,4 km/h (1 Bft) NO 45 -0,6 C -0,6 C 3,7 km/h (1 Bft)
22.02.2014 07:05 0,0 C 95 % 1015,2 hPa 0,0 l/m 3,7 km/h (1 Bft) NO 45 -0,7 C -0,8 C 5,8 km/h (2 Bft)
22.02.2014 07:10 0,2 C 95 % 1015,2 hPa 0,0 l/m 2,6 km/h (1 Bft) NO 45 -0,5 C -0,2 C 4,3 km/h (1 Bft)
22.02.2014 07:15 0,2 C 95 % 1015,2 hPa 0,0 l/m 3,1 km/h (1 Bft) NO 45 -0,5 C -0,4 C 3,4 km/h (1 Bft)
22.02.2014 07:20 0,2 C 95 % 1015,2 hPa 0,0 l/m 4,7 km/h (1 Bft) NO 45 -0,5 C -1,1 C 3,4 km/h (1 Bft)
22.02.2014 07:25 0,2 C 95 % 1015,2 hPa 0,0 l/m 4,3 km/h (1 Bft) NO 45 -0,5 C -0,9 C 6,9 km/h (2 Bft)
22.02.2014 07:30 0,2 C 95 % 1015,4 hPa 0,0 l/m 3,9 km/h (1 Bft) NO 45 -0,5 C -0,7 C 6,1 km/h (2 Bft)
22.02.2014 07:35 0,4 C 95 % 1015,4 hPa 0,0 l/m 4,5 km/h (1 Bft) NO 45 -0,3 C -0,8 C 6,1 km/h (2 Bft)
22.02.2014 07:40 0,5 C 95 % 1015,4 hPa 0,0 l/m 6,0 km/h (2 Bft) NO 45 -0,2 C -1,3 C 7,2 km/h (2 Bft)
22.02.2014 07:45 0,6 C 95 % 1015,4 hPa 0,0 l/m 5,6 km/h (1 Bft) NO 45 -0,1 C -1,1 C 4,3 km/h (1 Bft)
22.02.2014 07:50 0,6 C 95 % 1015,3 hPa 0,0 l/m 4,7 km/h (1 Bft) NO 45 -0,1 C -0,6 C 3,4 km/h (1 Bft)
22.02.2014 07:55 0,6 C 94 % 1015,3 hPa 0,0 l/m 3,7 km/h (1 Bft) NO 45 -0,3 C -0,1 C 3,7 km/h (1 Bft)
22.02.2014 08:00 0,7 C 94 % 1015,3 hPa 0,0 l/m 2,6 km/h (1 Bft) NO 45 -0,2 C 0,7 C 2,6 km/h (1 Bft)
22.02.2014 08:05 0,7 C 94 % 1015,3 hPa 0,0 l/m 3,1 km/h (1 Bft) NO 45 -0,2 C 0,4 C 4,3 km/h (1 Bft)
22.02.2014 08:10 0,8 C 94 % 1015,6 hPa 0,0 l/m 3,7 km/h (1 Bft) NO 45 -0,1 C 0,1 C 4,3 km/h (1 Bft)
22.02.2014 08:15 0,8 C 94 % 1015,6 hPa 0,0 l/m 3,5 km/h (1 Bft) NO 45 -0,1 C 0,3 C 4,8 km/h (1 Bft)
22.02.2014 08:20 0,9 C 93 % 1015,6 hPa 0,0 l/m 3,7 km/h (1 Bft) NO 45 -0,1 C 0,3 C 7,1 km/h (2 Bft)
22.02.2014 08:25 0,9 C 93 % 1015,6 hPa 0,0 l/m 4,0 km/h (1 Bft) NO 45 -0,1 C 0,2 C 3,5 km/h (1 Bft)
22.02.2014 08:30 0,9 C 93 % 1015,7 hPa 0,0 l/m 4,2 km/h (1 Bft) NO 45 -0,1 C 0,2 C 2,6 km/h (1 Bft)
22.02.2014 08:35 0,9 C 92 % 1015,7 hPa 0,0 l/m 4,2 km/h (1 Bft) O 90 -0,2 C 0,2 C 2,9 km/h (1 Bft)
22.02.2014 08:40 1,0 C 92 % 1015,7 hPa 0,0 l/m 3,5 km/h (1 Bft) O 90 -0,2 C 0,6 C 1,9 km/h (1 Bft)
22.02.2014 08:45 1,2 C 91 % 1015,7 hPa 0,0 l/m 3,4 km/h (1 Bft) O 90 -0,1 C 0,9 C 5,3 km/h (1 Bft)
22.02.2014 08:50 1,4 C 89 % 1016,2 hPa 0,0 l/m 3,9 km/h (1 Bft) SO 135 -0,2 C 0,9 C 2,4 km/h (1 Bft)
22.02.2014 08:55 1,5 C 89 % 1016,2 hPa 0,0 l/m 4,0 km/h (1 Bft) O-SO 112 -0,1 C 0,9 C 5,8 km/h (2 Bft)
22.02.2014 09:00 1,6 C 88 % 1016,2 hPa 0,0 l/m 4,2 km/h (1 Bft) O-SO 112 -0,2 C 1,2 C 5,3 km/h (1 Bft)
22.02.2014 09:05 1,6 C 86 % 1016,2 hPa 0,0 l/m 4,5 km/h (1 Bft) S-SO 157 -0,5 C 1,2 C 6,4 km/h (2 Bft)
22.02.2014 09:10 1,7 C 85 % 1016,2 hPa 0,0 l/m 4,2 km/h (1 Bft) S-SO 157 -0,5 C 1,5 C 4,0 km/h (1 Bft)
22.02.2014 09:15 1,8 C 85 % 1016,2 hPa 0,0 l/m 4,5 km/h (1 Bft) SO 135 -0,4 C 1,4 C 4,8 km/h (1 Bft)
22.02.2014 09:20 1,8 C 85 % 1016,2 hPa 0,0 l/m 5,1 km/h (1 Bft) S 180 -0,4 C 1,2 C 5,8 km/h (2 Bft)
22.02.2014 09:25 1,8 C 85 % 1016,2 hPa 0,0 l/m 6,0 km/h (2 Bft) S-SO 157 -0,4 C 0,8 C 7,6 km/h (2 Bft)
22.02.2014 09:30 1,9 C 85 % 1016,4 hPa 0,0 l/m 5,8 km/h (2 Bft) SO 135 -0,3 C 1,1 C 6,1 km/h (2 Bft)
22.02.2014 09:35 2,1 C 85 % 1016,4 hPa 0,0 l/m 5,6 km/h (1 Bft) O-SO 112 -0,2 C 1,2 C 7,4 km/h (2 Bft)
22.02.2014 09:40 2,4 C 84 % 1016,4 hPa 0,0 l/m 5,0 km/h (1 Bft) SO 135 -0,0 C 1,8 C 6,8 km/h (2 Bft)
22.02.2014 09:45 2,5 C 82 % 1016,4 hPa 0,0 l/m 5,6 km/h (1 Bft) SO 135 -0,3 C 1,7 C 11,7 km/h (2 Bft)
22.02.2014 09:50 2,7 C 79 % 1016,5 hPa 0,0 l/m 6,1 km/h (2 Bft) S 180 -0,6 C 1,8 C 7,2 km/h (2 Bft)
22.02.2014 09:55 2,7 C 79 % 1016,5 hPa 0,0 l/m 6,4 km/h (2 Bft) S-SW 202 -0,6 C 1,7 C 10,8 km/h (2 Bft)
22.02.2014 10:00 2,7 C 77 % 1016,5 hPa 0,0 l/m 6,0 km/h (2 Bft) S-SO 157 -0,9 C 2,0 C 12,2 km/h (2 Bft)
22.02.2014 10:05 2,9 C 77 % 1016,5 hPa 0,0 l/m 6,0 km/h (2 Bft) S 180 -0,7 C 2,1 C 7,6 km/h (2 Bft)
22.02.2014 10:10 3,4 C 75 % 1016,8 hPa 0,0 l/m 6,0 km/h (2 Bft) S-SO 157 -0,6 C 2,6 C 4,8 km/h (1 Bft)
22.02.2014 10:15 3,6 C 74 % 1016,8 hPa 0,0 l/m 6,6 km/h (2 Bft) S-SW 202 -0,6 C 2,6 C 8,4 km/h (2 Bft)
22.02.2014 10:20 3,6 C 72 % 1016,8 hPa 0,0 l/m 6,3 km/h (2 Bft) S-SW 202 -1,0 C 3,2 C 7,6 km/h (2 Bft)
22.02.2014 10:25 3,6 C 71 % 1016,8 hPa 0,0 l/m 6,1 km/h (2 Bft) W-SW 247 -1,2 C 3,3 C 4,8 km/h (1 Bft)
22.02.2014 10:30 3,5 C 71 % 1016,8 hPa 0,0 l/m 6,6 km/h (2 Bft) S 180 -1,3 C 2,6 C 16,9 km/h (3 Bft)
22.02.2014 10:35 3,4 C 70 % 1016,8 hPa 0,0 l/m 7,2 km/h (2 Bft) S-SO 157 -1,5 C 1,7 C 9,8 km/h (2 Bft)
22.02.2014 10:38 3,5 C 70 % 1016,8 hPa 0,0 l/m 6,3 km/h (2 Bft) S 180 -1,4 C 2,7 C 5,8 km/h (2 Bft)
22.02.2014 10:40 3,5 C 70 % 1016,8 hPa 0,0 l/m 6,3 km/h (2 Bft) S 180 -1,4 C 2,7 C 5,8 km/h (2 Bft)
22.02.2014 10:45 3,6 C 70 % 1016,8 hPa 0,0 l/m 5,3 km/h (1 Bft) S-SO 157 -1,3 C 3,1 C 3,1 km/h (1 Bft)
22.02.2014 10:50 4,1 C 71 % 1016,8 hPa 0,0 l/m 4,3 km/h (1 Bft) S-SO 157 -0,7 C 3,9 C 4,2 km/h (1 Bft)
22.02.2014 10:55 4,3 C 68 % 1016,8 hPa 0,0 l/m 4,5 km/h (1 Bft) S 180 -1,1 C 4,4 C 9,2 km/h (2 Bft)
22.02.2014 11:00 4,8 C 62 % 1016,8 hPa 0,0 l/m 5,6 km/h (1 Bft) S-SW 202 -1,9 C 5,0 C 1,6 km/h (1 Bft)
22.02.2014 11:05 5,1 C 59 % 1016,8 hPa 0,0 l/m 6,4 km/h (2 Bft) S-SO 157 -2,2 C 5,7 C 7,6 km/h (2 Bft)
22.02.2014 11:10 4,7 C 59 % 1016,9 hPa 0,0 l/m 6,4 km/h (2 Bft) S-SO 157 -2,6 C 7,0 C 8,5 km/h (2 Bft)
22.02.2014 11:15 4,8 C 60 % 1016,9 hPa 0,0 l/m 7,1 km/h (2 Bft) S-SO 157 -2,3 C 6,5 C 6,6 km/h (2 Bft)
22.02.2014 11:20 4,9 C 57 % 1016,9 hPa 0,0 l/m 7,9 km/h (2 Bft) S-SW 202 -2,9 C 6,4 C 7,9 km/h (2 Bft)
22.02.2014 11:25 6,0 C 55 % 1016,9 hPa 0,0 l/m 7,2 km/h (2 Bft) S-SO 157 -2,3 C 7,7 C 9,8 km/h (2 Bft)
22.02.2014 11:30 6,9 C 51 % 1017,3 hPa 0,0 l/m 8,4 km/h (2 Bft) S-SO 157 -2,5 C 6,7 C 11,3 km/h (2 Bft)
22.02.2014 11:35 7,7 C 50 % 1017,3 hPa 0,0 l/m 8,9 km/h (2 Bft) S-SO 157 -2,1 C 6,1 C 7,9 km/h (2 Bft)
22.02.2014 11:40 7,7 C 45 % 1017,3 hPa 0,0 l/m 6,9 km/h (2 Bft) S 180 -3,5 C 9,2 C 10,3 km/h (2 Bft)
22.02.2014 11:45 7,8 C 48 % 1017,3 hPa 0,0 l/m 6,9 km/h (2 Bft) S-SW 202 -2,5 C 8,9 C 10,8 km/h (2 Bft)
22.02.2014 11:50 7,0 C 47 % 1017,3 hPa 0,0 l/m 7,4 km/h (2 Bft) S-SO 157 -3,5 C 7,0 C 8,5 km/h (2 Bft)
22.02.2014 11:55 8,3 C 47 % 1017,3 hPa 0,0 l/m 6,8 km/h (2 Bft) SW 225 -2,3 C 8,1 C 4,5 km/h (1 Bft)
22.02.2014 12:00 8,4 C 46 % 1017,3 hPa 0,0 l/m 6,1 km/h (2 Bft) S 180 -2,5 C 10,3 C 5,3 km/h (1 Bft)
22.02.2014 12:05 6,9 C 49 % 1017,3 hPa 0,0 l/m 6,1 km/h (2 Bft) S-SW 202 -3,1 C 9,7 C 6,4 km/h (2 Bft)
22.02.2014 12:10 5,9 C 52 % 1017,5 hPa 0,0 l/m 5,8 km/h (2 Bft) S 180 -3,2 C 7,6 C 5,5 km/h (1 Bft)
22.02.2014 12:15 5,4 C 50 % 1017,5 hPa 0,0 l/m 6,3 km/h (2 Bft) N-NO 22 -4,2 C 6,2 C 10,3 km/h (2 Bft)
22.02.2014 12:20 4,9 C 52 % 1017,5 hPa 0,0 l/m 6,6 km/h (2 Bft) S 180 -4,1 C 4,7 C 6,9 km/h (2 Bft)
22.02.2014 12:25 4,6 C 53 % 1017,5 hPa 0,0 l/m 6,8 km/h (2 Bft) S 180 -4,1 C 3,9 C 7,4 km/h (2 Bft)
22.02.2014 12:30 4,6 C 56 % 1017,4 hPa 0,0 l/m 6,1 km/h (2 Bft) SO 135 -3,4 C 4,0 C 5,6 km/h (1 Bft)
22.02.2014 12:35 4,5 C 57 % 1017,4 hPa 0,0 l/m 5,8 km/h (2 Bft) S 180 -3,3 C 4,1 C 5,6 km/h (1 Bft)
22.02.2014 12:40 4,6 C 56 % 1017,4 hPa 0,0 l/m 6,6 km/h (2 Bft) S-SO 157 -3,4 C 3,6 C 10,5 km/h (2 Bft)
22.02.2014 12:45 4,8 C 55 % 1017,4 hPa 0,0 l/m 6,6 km/h (2 Bft) S 180 -3,5 C 3,7 C 7,2 km/h (2 Bft)
22.02.2014 12:50 5,2 C 52 % 1017,2 hPa 0,0 l/m 5,8 km/h (2 Bft) S-SO 157 -3,8 C 4,8 C 7,1 km/h (2 Bft)
22.02.2014 12:55 5,3 C 54 % 1017,2 hPa 0,0 l/m 5,6 km/h (1 Bft) S 180 -3,2 C 5,1 C 8,0 km/h (2 Bft)
22.02.2014 13:00 5,1 C 54 % 1017,2 hPa 0,0 l/m 6,9 km/h (2 Bft) S 180 -3,4 C 4,4 C 6,3 km/h (2 Bft)
22.02.2014 13:05 5,1 C 56 % 1017,2 hPa 0,0 l/m 7,2 km/h (2 Bft) S-SW 202 -2,9 C 3,8 C 8,0 km/h (2 Bft)
22.02.2014 13:10 4,9 C 56 % 1017,2 hPa 0,0 l/m 6,3 km/h (2 Bft) SO 135 -3,1 C 4,6 C 6,4 km/h (2 Bft)
22.02.2014 13:15 4,9 C 55 % 1017,2 hPa 0,0 l/m 6,3 km/h (2 Bft) S 180 -3,4 C 4,6 C 8,5 km/h (2 Bft)
22.02.2014 13:20 5,1 C 54 % 1017,2 hPa 0,0 l/m 6,4 km/h (2 Bft) S-SW 202 -3,4 C 4,6 C 5,8 km/h (2 Bft)
22.02.2014 13:25 5,1 C 53 % 1017,2 hPa 0,0 l/m 6,3 km/h (2 Bft) S-SW 202 -3,7 C 4,6 C 8,4 km/h (2 Bft)
22.02.2014 13:30 5,9 C 55 % 1016,8 hPa 0,0 l/m 5,3 km/h (1 Bft) S 180 -2,4 C 5,4 C 4,8 km/h (1 Bft)
22.02.2014 13:35 6,5 C 53 % 1016,8 hPa 0,0 l/m 4,0 km/h (1 Bft) SO 135 -2,4 C 6,9 C 3,2 km/h (1 Bft)
22.02.2014 13:40 8,2 C 46 % 1016,8 hPa 0,0 l/m 3,9 km/h (1 Bft) SO 135 -2,7 C 9,8 C 5,6 km/h (1 Bft)
22.02.2014 13:45 7,9 C 45 % 1016,8 hPa 0,0 l/m 4,7 km/h (1 Bft) S 180 -3,3 C 11,1 C 5,8 km/h (2 Bft)
22.02.2014 13:50 6,5 C 48 % 1017,1 hPa 0,0 l/m 5,8 km/h (2 Bft) S 180 -3,7 C 9,4 C 9,0 km/h (2 Bft)
22.02.2014 13:55 6,2 C 48 % 1017,1 hPa 0,0 l/m 6,4 km/h (2 Bft) S-SO 157 -4,0 C 8,1 C 7,2 km/h (2 Bft)
22.02.2014 14:00 5,8 C 48 % 1017,1 hPa 0,0 l/m 7,6 km/h (2 Bft) S-SO 157 -4,3 C 5,5 C 10,5 km/h (2 Bft)
22.02.2014 14:05 5,8 C 49 % 1017,1 hPa 0,0 l/m 7,6 km/h (2 Bft) W-SW 247 -4,1 C 4,8 C 6,9 km/h (2 Bft)
22.02.2014 14:10 7,1 C 46 % 1017,1 hPa 0,0 l/m 6,9 km/h (2 Bft) S 180 -3,7 C 6,3 C 9,8 km/h (2 Bft)
22.02.2014 14:15 6,9 C 47 % 1017,1 hPa 0,0 l/m 6,1 km/h (2 Bft) S 180 -3,6 C 7,6 C 7,2 km/h (2 Bft)
22.02.2014 14:20 6,4 C 47 % 1017,1 hPa 0,0 l/m 6,6 km/h (2 Bft) SW 225 -4,1 C 7,1 C 11,6 km/h (2 Bft)
22.02.2014 14:25 6,2 C 48 % 1017,1 hPa 0,0 l/m 6,8 km/h (2 Bft) S-SO 157 -4,0 C 6,4 C 6,1 km/h (2 Bft)
22.02.2014 14:30 6,4 C 47 % 1017,2 hPa 0,0 l/m 5,6 km/h (1 Bft) S-SO 157 -4,1 C 6,8 C 3,7 km/h (1 Bft)
22.02.2014 14:35 6,5 C 48 % 1017,2 hPa 0,0 l/m 5,5 km/h (1 Bft) S-SO 157 -3,7 C 7,0 C 8,5 km/h (2 Bft)
22.02.2014 14:40 7,2 C 45 % 1017,2 hPa 0,0 l/m 6,9 km/h (2 Bft) SO 135 -3,9 C 6,3 C 8,5 km/h (2 Bft)
22.02.2014 14:45 7,2 C 44 % 1017,2 hPa 0,0 l/m 7,4 km/h (2 Bft) O-SO 112 -4,2 C 6,8 C 9,2 km/h (2 Bft)
22.02.2014 14:50 6,5 C 45 % 1017,2 hPa 0,0 l/m 6,9 km/h (2 Bft) O 90 -4,6 C 6,9 C 10,6 km/h (2 Bft)
22.02.2014 14:55 6,1 C 45 % 1017,2 hPa 0,0 l/m 6,6 km/h (2 Bft) S-SO 157 -4,9 C 6,6 C 7,6 km/h (2 Bft)
22.02.2014 15:00 5,9 C 47 % 1017,2 hPa 0,0 l/m 5,8 km/h (2 Bft) SO 135 -4,5 C 6,4 C 7,2 km/h (2 Bft)
22.02.2014 15:05 5,8 C 47 % 1017,2 hPa 0,0 l/m 6,1 km/h (2 Bft) S-SO 157 -4,6 C 5,9 C 9,5 km/h (2 Bft)
22.02.2014 15:10 5,8 C 47 % 1017,1 hPa 0,0 l/m 6,4 km/h (2 Bft) N 360 -4,6 C 5,6 C 6,0 km/h (2 Bft)
22.02.2014 15:15 5,8 C 48 % 1017,1 hPa 0,0 l/m 6,6 km/h (2 Bft) S 180 -4,3 C 5,3 C 7,6 km/h (2 Bft)
22.02.2014 15:20 5,6 C 47 % 1017,1 hPa 0,0 l/m 7,2 km/h (2 Bft) S 180 -4,8 C 4,4 C 7,6 km/h (2 Bft)
22.02.2014 15:25 5,5 C 47 % 1017,1 hPa 0,0 l/m 7,6 km/h (2 Bft) S 180 -4,9 C 3,7 C 4,8 km/h (1 Bft)
22.02.2014 15:30 5,7 C 48 % 1017,2 hPa 0,0 l/m 6,9 km/h (2 Bft) S-SO 157 -4,4 C 4,8 C 7,1 km/h (2 Bft)
22.02.2014 15:33 6,3 C 47 % 1017,2 hPa 0,0 l/m 6,0 km/h (2 Bft) S 180 -4,2 C 5,8 C 7,1 km/h (2 Bft)
22.02.2014 15:35 6,3 C 47 % 1017,2 hPa 0,0 l/m 6,0 km/h (2 Bft) S 180 -4,2 C 5,8 C 7,1 km/h (2 Bft)
22.02.2014 15:40 5,7 C 47 % 1017,2 hPa 0,0 l/m 5,8 km/h (2 Bft) S-SO 157 -4,7 C 6,2 C 6,6 km/h (2 Bft)
22.02.2014 15:45 5,4 C 48 % 1017,2 hPa 0,0 l/m 6,3 km/h (2 Bft) S-SW 202 -4,7 C 5,6 C 6,9 km/h (2 Bft)
22.02.2014 15:50 5,3 C 50 % 1017,2 hPa 0,0 l/m 4,8 km/h (1 Bft) S 180 -4,3 C 5,8 C 4,5 km/h (1 Bft)
22.02.2014 15:55 5,2 C 49 % 1017,2 hPa 0,0 l/m 4,8 km/h (1 Bft) S 180 -4,6 C 5,7 C 7,9 km/h (2 Bft)
22.02.2014 16:00 5,2 C 49 % 1017,2 hPa 0,0 l/m 6,1 km/h (2 Bft) S 180 -4,6 C 5,4 C 7,4 km/h (2 Bft)
22.02.2014 16:05 5,2 C 49 % 1017,2 hPa 0,0 l/m 6,4 km/h (2 Bft) NO 45 -4,6 C 5,6 C 5,5 km/h (1 Bft)
22.02.2014 16:10 5,3 C 51 % 1017,1 hPa 0,0 l/m 6,0 km/h (2 Bft) SW 225 -4,0 C 6,6 C 6,1 km/h (2 Bft)
22.02.2014 16:15 5,2 C 52 % 1017,1 hPa 0,0 l/m 4,8 km/h (1 Bft) W-SW 247 -3,8 C 8,2 C 1,8 km/h (1 Bft)
22.02.2014 16:20 5,1 C 51 % 1017,1 hPa 0,0 l/m 4,2 km/h (1 Bft) S 180 -4,2 C 8,6 C 5,0 km/h (1 Bft)
22.02.2014 16:25 5,0 C 52 % 1017,1 hPa 0,0 l/m 4,2 km/h (1 Bft) SO 135 -4,0 C 7,7 C 4,3 km/h (1 Bft)
22.02.2014 16:30 4,6 C 53 % 1017,1 hPa 0,0 l/m 4,3 km/h (1 Bft) S 180 -4,1 C 6,3 C 5,1 km/h (1 Bft)
22.02.2014 16:35 4,4 C 54 % 1017,1 hPa 0,0 l/m 4,5 km/h (1 Bft) S 180 -4,1 C 5,7 C 7,2 km/h (2 Bft)
22.02.2014 16:40 4,1 C 54 % 1017,1 hPa 0,0 l/m 3,7 km/h (1 Bft) S 180 -4,4 C 5,5 C 3,5 km/h (1 Bft)
22.02.2014 16:45 3,8 C 54 % 1017,1 hPa 0,0 l/m 3,2 km/h (1 Bft) S-SO 157 -4,6 C 5,3 C 2,3 km/h (1 Bft)
22.02.2014 16:50 3,3 C 55 % 1017,2 hPa 0,0 l/m 3,1 km/h (1 Bft) O-SO 112 -4,9 C 4,4 C 4,5 km/h (1 Bft)
22.02.2014 16:55 3,1 C 55 % 1017,2 hPa 0,0 l/m 3,1 km/h (1 Bft) O-NO 67 -5,0 C 3,9 C 3,4 km/h (1 Bft)
22.02.2014 17:00 2,9 C 57 % 1017,2 hPa 0,0 l/m 3,2 km/h (1 Bft) O-NO 67 -4,8 C 3,2 C 3,7 km/h (1 Bft)
22.02.2014 17:05 2,8 C 58 % 1017,2 hPa 0,0 l/m 3,2 km/h (1 Bft) O-NO 67 -4,6 C 2,9 C 3,1 km/h (1 Bft)
22.02.2014 17:10 2,7 C 58 % 1017,2 hPa 0,0 l/m 2,7 km/h (1 Bft) O-NO 67 -4,7 C 2,9 C 3,4 km/h (1 Bft)
22.02.2014 17:15 2,7 C 58 % 1017,2 hPa 0,0 l/m 2,3 km/h (1 Bft) O-NO 67 -4,7 C 3,0 C 2,6 km/h (1 Bft)
22.02.2014 17:20 2,8 C 59 % 1017,2 hPa 0,0 l/m 1,9 km/h (1 Bft) O 90 -4,4 C 3,0 C 2,7 km/h (1 Bft)
22.02.2014 17:25 2,9 C 59 % 1017,2 hPa 0,0 l/m 2,1 km/h (1 Bft) O 90 -4,3 C 3,5 C 1,8 km/h (1 Bft)
22.02.2014 17:30 3,0 C 59 % 1017,3 hPa 0,0 l/m 2,9 km/h (1 Bft) O 90 -4,2 C 4,1 C 3,9 km/h (1 Bft)
22.02.2014 17:35 2,9 C 59 % 1017,3 hPa 0,0 l/m 3,2 km/h (1 Bft) O 90 -4,3 C 3,8 C 5,0 km/h (1 Bft)
22.02.2014 17:40 2,6 C 61 % 1017,3 hPa 0,0 l/m 4,0 km/h (1 Bft) O-SO 112 -4,1 C 2,6 C 6,4 km/h (2 Bft)
22.02.2014 17:45 2,2 C 63 % 1017,3 hPa 0,0 l/m 4,5 km/h (1 Bft) O-SO 112 -4,1 C 2,2 C 4,3 km/h (1 Bft)
22.02.2014 17:50 1,8 C 64 % 1017,2 hPa 0,0 l/m 4,3 km/h (1 Bft) O-NO 67 -4,3 C 1,1 C 4,2 km/h (1 Bft)
22.02.2014 17:55 1,6 C 65 % 1017,2 hPa 0,0 l/m 3,5 km/h (1 Bft) NO 45 -4,3 C 1,0 C 2,3 km/h (1 Bft)
22.02.2014 18:00 1,3 C 66 % 1017,2 hPa 0,0 l/m 3,2 km/h (1 Bft) O-NO 67 -4,3 C 0,5 C 5,5 km/h (1 Bft)
22.02.2014 18:05 1,1 C 67 % 1017,2 hPa 0,0 l/m 3,1 km/h (1 Bft) O-SO 112 -4,3 C 0,3 C 4,7 km/h (1 Bft)
22.02.2014 18:10 0,9 C 69 % 1017,4 hPa 0,0 l/m 3,4 km/h (1 Bft) NO 45 -4,1 C 0,0 C 3,7 km/h (1 Bft)
22.02.2014 18:15 0,9 C 69 % 1017,4 hPa 0,0 l/m 3,7 km/h (1 Bft) O 90 -4,1 C -0,4 C 6,4 km/h (2 Bft)
22.02.2014 18:20 0,7 C 71 % 1017,4 hPa 0,0 l/m 4,5 km/h (1 Bft) O-SO 112 -3,9 C -0,9 C 7,1 km/h (2 Bft)
22.02.2014 18:25 0,5 C 71 % 1017,4 hPa 0,0 l/m 4,0 km/h (1 Bft) O 90 -4,1 C -0,8 C 3,1 km/h (1 Bft)
22.02.2014 18:30 0,5 C 72 % 1017,6 hPa 0,0 l/m 3,5 km/h (1 Bft) N-NO 22 -3,9 C -0,9 C 5,3 km/h (1 Bft)
22.02.2014 18:35 0,3 C 73 % 1017,6 hPa 0,0 l/m 3,7 km/h (1 Bft) NO 45 -4,0 C -1,2 C 4,3 km/h (1 Bft)
22.02.2014 18:40 0,0 C 73 % 1017,6 hPa 0,0 l/m 3,7 km/h (1 Bft) NO 45 -4,2 C -1,6 C 2,9 km/h (1 Bft)
22.02.2014 18:45 -0,5 C 73 % 1017,6 hPa 0,0 l/m 2,6 km/h (1 Bft) O 90 -4,7 C -0,9 C 0,0 km/h (0 Bft)
22.02.2014 18:50 -0,1 C 75 % 1017,7 hPa 0,0 l/m 1,8 km/h (1 Bft) NO 45 -4,0 C -1,1 C 3,7 km/h (1 Bft)
22.02.2014 18:55 -0,4 C 75 % 1017,7 hPa 0,0 l/m 1,6 km/h (1 Bft) NO 45 -4,3 C -1,1 C 0,0 km/h (0 Bft)
22.02.2014 19:00 -1,1 C 75 % 1017,7 hPa 0,0 l/m 1,0 km/h (0 Bft) NO 45 -5,0 C -1,4 C 2,3 km/h (1 Bft)
22.02.2014 19:05 -1,5 C 75 % 1017,7 hPa 0,0 l/m 0,3 km/h (0 Bft) O 90 -5,3 C -1,6 C 0,0 km/h (0 Bft)
22.02.2014 19:10 -1,3 C 76 % 1017,6 hPa 0,0 l/m 0,3 km/h (0 Bft) NO 45 -5,0 C -1,8 C 0,0 km/h (0 Bft)
22.02.2014 19:15 -1,1 C 78 % 1017,6 hPa 0,0 l/m 0,3 km/h (0 Bft) NO 45 -4,4 C -1,8 C 1,6 km/h (1 Bft)
22.02.2014 19:20 -1,7 C 77 % 1017,6 hPa 0,0 l/m 0,3 km/h (0 Bft) NO 45 -5,2 C -1,8 C 0,0 km/h (0 Bft)
22.02.2014 19:25 -1,6 C 78 % 1017,6 hPa 0,0 l/m 0,2 km/h (0 Bft) NO 45 -4,9 C -2,0 C 0,0 km/h (0 Bft)
22.02.2014 19:30 -2,0 C 77 % 1017,9 hPa 0,0 l/m 0,2 km/h (0 Bft) W-SW 247 -5,5 C -2,1 C 2,1 km/h (1 Bft)
22.02.2014 19:35 -2,1 C 77 % 1017,9 hPa 0,0 l/m 0,3 km/h (0 Bft) S-SO 157 -5,6 C -2,1 C 2,3 km/h (1 Bft)
22.02.2014 19:40 -1,7 C 78 % 1017,9 hPa 0,0 l/m 0,3 km/h (0 Bft) N 360 -5,0 C -2,2 C 0,0 km/h (0 Bft)
22.02.2014 19:45 -2,1 C 78 % 1017,9 hPa 0,0 l/m 0,2 km/h (0 Bft) N-NO 22 -5,4 C -2,3 C 0,0 km/h (0 Bft)
22.02.2014 19:50 -2,3 C 78 % 1017,8 hPa 0,0 l/m 0,0 km/h (0 Bft) O-NO 67 -5,6 C -2,3 C 0,0 km/h (0 Bft)
22.02.2014 19:55 -2,2 C 78 % 1017,8 hPa 0,0 l/m 0,0 km/h (0 Bft) S 180 -5,5 C -2,3 C 0,0 km/h (0 Bft)
22.02.2014 20:00 -2,1 C 79 % 1017,8 hPa 0,0 l/m 0,0 km/h (0 Bft) O-SO 112 -5,2 C -2,5 C 0,0 km/h (0 Bft)
22.02.2014 20:05 -2,4 C 79 % 1017,8 hPa 0,0 l/m 0,0 km/h (0 Bft) W 270 -5,5 C -2,5 C 0,0 km/h (0 Bft)
22.02.2014 20:10 -2,3 C 79 % 1017,8 hPa 0,0 l/m 0,2 km/h (0 Bft) W-NW 292 -5,4 C -2,6 C 2,3 km/h (1 Bft)
22.02.2014 20:15 -2,0 C 80 % 1017,8 hPa 0,0 l/m 0,2 km/h (0 Bft) S 180 -5,0 C -2,5 C 0,0 km/h (0 Bft)
22.02.2014 20:20 -1,9 C 80 % 1017,8 hPa 0,0 l/m 0,3 km/h (0 Bft) NO 45 -4,9 C -2,5 C 0,0 km/h (0 Bft)
22.02.2014 20:25 -2,0 C 80 % 1017,8 hPa 0,0 l/m 0,2 km/h (0 Bft) N-NO 22 -5,0 C -2,5 C 0,0 km/h (0 Bft)
22.02.2014 20:30 -2,1 C 79 % 1017,9 hPa 0,0 l/m 0,0 km/h (0 Bft) N-NW 337 -5,2 C -2,5 C 0,0 km/h (0 Bft)
22.02.2014 20:33 -2,3 C 79 % 1017,9 hPa 0,0 l/m 0,0 km/h (0 Bft) N 360 -5,4 C -2,5 C 0,0 km/h (0 Bft)
22.02.2014 20:35 -2,3 C 79 % 1017,9 hPa 0,0 l/m 0,0 km/h (0 Bft) N 360 -5,4 C -2,5 C 0,0 km/h (0 Bft)
22.02.2014 20:40 -2,2 C 79 % 1017,9 hPa 0,0 l/m 0,0 km/h (0 Bft) N-NW 337 -5,3 C -2,5 C 0,0 km/h (0 Bft)
22.02.2014 20:45 -2,2 C 80 % 1017,9 hPa 0,0 l/m 0,0 km/h (0 Bft) NO 45 -5,2 C -2,7 C 0,0 km/h (0 Bft)
22.02.2014 20:50 -2,4 C 79 % 1018,2 hPa 0,0 l/m 0,0 km/h (0 Bft) N-NO 22 -5,5 C -2,7 C 0,0 km/h (0 Bft)
22.02.2014 20:55 -2,5 C 79 % 1018,2 hPa 0,0 l/m 0,0 km/h (0 Bft) N-NO 22 -5,6 C -2,8 C 0,0 km/h (0 Bft)
22.02.2014 21:00 -2,2 C 80 % 1018,2 hPa 0,0 l/m 0,0 km/h (0 Bft) SW 225 -5,2 C -2,7 C 0,0 km/h (0 Bft)
22.02.2014 21:05 -1,8 C 81 % 1018,2 hPa 0,0 l/m 0,0 km/h (0 Bft) N-NW 337 -4,6 C -2,7 C 0,0 km/h (0 Bft)
22.02.2014 21:10 -1,9 C 81 % 1018,2 hPa 0,0 l/m 0,2 km/h (0 Bft) N-NW 337 -4,7 C -2,7 C 0,0 km/h (0 Bft)
22.02.2014 21:15 -1,9 C 81 % 1018,2 hPa 0,0 l/m 0,5 km/h (0 Bft) S-SO 157 -4,7 C -2,7 C 0,0 km/h (0 Bft)
22.02.2014 21:20 -2,0 C 81 % 1018,2 hPa 0,0 l/m 0,6 km/h (0 Bft) W-SW 247 -4,8 C -2,6 C 1,8 km/h (1 Bft)
22.02.2014 21:25 -1,8 C 81 % 1018,2 hPa 0,0 l/m 0,3 km/h (0 Bft) N-NO 22 -4,6 C -2,4 C 1,6 km/h (1 Bft)
22.02.2014 21:30 -1,6 C 82 % 1018,4 hPa 0,0 l/m 0,3 km/h (0 Bft) N-NW 337 -4,3 C -2,4 C 0,0 km/h (0 Bft)
22.02.2014 21:35 -2,0 C 81 % 1018,4 hPa 0,0 l/m 0,3 km/h (0 Bft) S 180 -4,8 C -2,3 C 3,1 km/h (1 Bft)
22.02.2014 21:40 -1,6 C 81 % 1018,4 hPa 0,0 l/m 0,3 km/h (0 Bft) NO 45 -4,4 C -2,2 C 0,0 km/h (0 Bft)
22.02.2014 21:45 -1,6 C 81 % 1018,4 hPa 0,0 l/m 0,3 km/h (0 Bft) W 270 -4,4 C -2,1 C 0,0 km/h (0 Bft)
22.02.2014 21:50 -1,3 C 81 % 1018,5 hPa 0,0 l/m 0,8 km/h (0 Bft) SO 135 -4,1 C -1,6 C 3,5 km/h (1 Bft)
22.02.2014 21:55 -1,0 C 81 % 1018,5 hPa 0,0 l/m 1,0 km/h (0 Bft) O-SO 112 -3,8 C -1,3 C 0,0 km/h (0 Bft)
22.02.2014 22:00 -0,8 C 80 % 1018,5 hPa 0,0 l/m 1,6 km/h (1 Bft) SW 225 -3,8 C -0,8 C 0,0 km/h (0 Bft)
22.02.2014 22:05 -0,6 C 80 % 1018,5 hPa 0,0 l/m 1,4 km/h (1 Bft) W-SW 247 -3,6 C -0,6 C 1,6 km/h (1 Bft)
22.02.2014 22:10 -0,6 C 80 % 1018,8 hPa 0,0 l/m 1,1 km/h (1 Bft) S-SW 202 -3,6 C -0,4 C 2,3 km/h (1 Bft)
22.02.2014 22:15 -0,5 C 79 % 1018,8 hPa 0,0 l/m 0,8 km/h (0 Bft) S-SO 157 -3,7 C -0,3 C 0,0 km/h (0 Bft)
22.02.2014 22:20 -0,4 C 79 % 1018,8 hPa 0,0 l/m 0,5 km/h (0 Bft) S-SW 202 -3,6 C -0,3 C 3,9 km/h (1 Bft)
22.02.2014 22:25 -0,5 C 79 % 1018,8 hPa 0,0 l/m 1,3 km/h (1 Bft) S 180 -3,7 C -0,2 C 1,8 km/h (1 Bft)
22.02.2014 22:30 -0,3 C 78 % 1018,9 hPa 0,0 l/m 1,9 km/h (1 Bft) S 180 -3,7 C -0,3 C 1,9 km/h (1 Bft)
22.02.2014 22:35 -0,4 C 77 % 1018,9 hPa 0,0 l/m 2,1 km/h (1 Bft) S 180 -3,9 C -0,3 C 4,0 km/h (1 Bft)
22.02.2014 22:40 -0,5 C 77 % 1018,9 hPa 0,0 l/m 3,4 km/h (1 Bft) S-SW 202 -4,0 C -0,9 C 7,4 km/h (2 Bft)
22.02.2014 22:45 -0,2 C 77 % 1018,9 hPa 0,0 l/m 5,3 km/h (1 Bft) SO 135 -3,7 C -2,1 C 10,3 km/h (2 Bft)
22.02.2014 22:50 -0,1 C 76 % 1019,2 hPa 0,0 l/m 6,9 km/h (2 Bft) O-SO 112 -3,8 C -2,9 C 18,3 km/h (3 Bft)
22.02.2014 22:55 0,1 C 76 % 1019,2 hPa 0,0 l/m 6,8 km/h (2 Bft) NO 45 -3,6 C -2,6 C 8,2 km/h (2 Bft)
22.02.2014 23:00 0,3 C 74 % 1019,2 hPa 0,0 l/m 6,1 km/h (2 Bft) O-SO 112 -3,8 C -1,9 C 5,3 km/h (1 Bft)
22.02.2014 23:05 0,3 C 73 % 1019,2 hPa 0,0 l/m 5,1 km/h (1 Bft) S-SW 202 -4,0 C -1,4 C 4,8 km/h (1 Bft)
22.02.2014 23:10 0,0 C 73 % 1019,6 hPa 0,0 l/m 4,0 km/h (1 Bft) SO 135 -4,2 C -1,0 C 5,1 km/h (1 Bft)
22.02.2014 23:15 0,0 C 74 % 1019,6 hPa 0,0 l/m 4,2 km/h (1 Bft) N 360 -4,1 C -1,2 C 7,2 km/h (2 Bft)
22.02.2014 23:20 0,1 C 74 % 1019,6 hPa 0,0 l/m 4,8 km/h (1 Bft) S-SO 157 -4,0 C -1,5 C 5,8 km/h (2 Bft)
22.02.2014 23:25 0,2 C 75 % 1019,6 hPa 0,0 l/m 4,5 km/h (1 Bft) SO 135 -3,7 C -1,2 C 5,3 km/h (1 Bft)
22.02.2014 23:30 0,3 C 74 % 1019,4 hPa 0,0 l/m 3,9 km/h (1 Bft) O-SO 112 -3,8 C -0,7 C 3,5 km/h (1 Bft)
22.02.2014 23:35 0,5 C 74 % 1019,4 hPa 0,0 l/m 4,2 km/h (1 Bft) O-NO 67 -3,6 C -0,9 C 7,4 km/h (2 Bft)
22.02.2014 23:40 0,6 C 73 % 1019,4 hPa 0,0 l/m 5,3 km/h (1 Bft) SO 135 -3,7 C -1,2 C 5,8 km/h (2 Bft)
22.02.2014 23:45 0,5 C 73 % 1019,4 hPa 0,0 l/m 5,5 km/h (1 Bft) O 90 -3,8 C -1,2 C 3,5 km/h (1 Bft)
22.02.2014 23:50 0,1 C 74 % 1019,5 hPa 0,0 l/m 2,7 km/h (1 Bft) O 90 -4,0 C 0,2 C 0,0 km/h (0 Bft)
22.02.2014 23:55 -0,1 C 75 % 1019,5 hPa 0,0 l/m 1,3 km/h (1 Bft) S-SO 157 -4,0 C 0,2 C 3,7 km/h (1 Bft)
_ Min-Zeit 20:55 14:45 00:05 - 21:05 - - 20:55 22:50 23:50
Minimum _ -2,5 C 44 % 1014,3 hPa - 0,0 km/h (0 Bft) - - -5,6 C -2,9 C 0,0 km/h (0 Bft)
_ Max-Zeit 12:00 06:45 23:25 23:55 11:35 - - 00:35 13:45 22:50
Maximum _ 8,4 C 96 % 1019,6 hPa 0,0 l/m 8,9 km/h
S-SO (2 Bft)
- - 0,3 C 11,1 C 18,3 km/h
O-SO (3 Bft)
Durchschnitt _ 1,7 C 76 % 1016,5 hPa #0,0 l/m 3,6 km/h (1 Bft) NO - -2,4 C 1,5 C 4,4 km/h (1 Bft)